Regional Weather Roundup
Issued by NWS

Home | Current Version | Previous Version | Graphics & Text | Print | Product List | Glossary On
Versions: 1 2 3 4 5 6 7 8 9 10 11 12 13 14 15 16 17 18 19 20 21 22 23 24 25 26 27 28 29 30 31 32 33 34 35 36 37 38 39 40 41 42 43 44 45 46 47 48 49 50
000
ASUS43 KBIS 241410
RWRND

NORTH DAKOTA REGIONAL WEATHER ROUNDUP
NATIONAL WEATHER SERVICE BISMARCK ND
900 AM CDT SUN MAY 24 2015

NOTE: "FAIR" INDICATES FEW OR NO CLOUDS BELOW 12,000 FEET WITH NO
SIGNIFICANT WEATHER AND/OR OBSTRUCTIONS TO VISIBILITY.


NDZ001>003-009>011-017-241500-
NORTHWEST NORTH DAKOTA

CITY           SKY/WX    TMP DP  RH WIND       PRES   REMARKS
WILLISTON      MOSUNNY   53  44  71 NE5       30.06F
MINOT          PTSUNNY   58  47  66 S3        30.06F
MINOT AFB      PTSUNNY   66  52  60 E3        30.05S
$$

NDZ018>021-031>035-040>046-241500-
SOUTHWEST NORTH DAKOTA

CITY           SKY/WX    TMP DP  RH WIND       PRES   REMARKS
BISMARCK       CLOUDY    60  53  77 E10       30.06S
DICKINSON      LGT RAIN  51  49  92 E8        30.06R FOG
GARRISON         N/A     59  52  77 E5        30.06F
HETTINGER ARPT CLOUDY    53  50  89 NE10      30.05S
$$

NDZ004>008-012>016-024-026-027-054-241500-
NORTHEAST NORTH DAKOTA

CITY           SKY/WX    TMP DP  RH WIND       PRES   REMARKS
GRAND FORKS    MOSUNNY   63  49  60 CALM      30.06F
GRND FRKS AFB  MOSUNNY   62  49  62 SE2       30.07F
DEVILS LAKE    MOSUNNY   63  52  67 CALM      30.07F
$$

NDZ022-023-025-028>030-036>039-047>053-241500-
SOUTHEAST NORTH DAKOTA

CITY           SKY/WX    TMP DP  RH WIND       PRES   REMARKS
FARGO          CLOUDY    64  50  60 NE8       30.05F
JAMESTOWN      CLOUDY    61  51  70 NE10      30.04F
$$



USA.gov is the U.S. government's official web portal to all federal, state and local government web resources and services.